Location: Tr�zien
(48.4167°N, 4.7667°W)
Time: 00:10:14
(UTC+00:00)

Daily predictions for brighter satellites

Satellite Brightness Start Highest point End
(mag) Time Altitude Azimuth Time Altitude Azimuth Time Altitude Azimuth
Cosmos 1943 Rocket 3.6 04:06:38 35° E 04:06:38 35° E 04:11:22 10° NE
CENTAUR R/B 3.1 04:16:08 50° ESE 04:16:08 50° ESE 04:22:47 10° NE
NOSS 3-2 (A) 3.7 04:27:49 60° ENE 04:27:49 60° ENE 04:33:21 10° NE
Cosmos 2278 Rocket 4.1 04:33:50 20° N 04:33:50 20° N 04:35:35 10° NNE
NOSS 3-2 (C) 4.1 04:33:35 42° SSE 04:34:39 46° ESE 04:40:42 10° NE
Meteor 2-3 Rocket 4.3 04:36:54 10° S 04:42:24 56° E 04:48:00 10° NNE
Cosmos 968 Rocket 4.5 04:42:39 23° SSE 04:45:23 43° ESE 04:50:14 10° NE
Cosmos 921 Rocket 4.1 04:50:35 44° E 04:50:35 44° E 04:54:17 10° SE
Meteor 1-26 Rocket 4.4 04:53:51 36° N 04:56:21 76° ENE 05:02:09 10° SSE
Cosmos 1812 4.3 04:56:57 34° E 04:56:57 34° E 05:00:15 10° SE
USA 238 DEB 3.6 05:00:11 43° SSW 05:02:31 79° SE 05:09:24 10° NE
USA 238 3.6 05:00:14 42° SSW 05:02:37 78° SE 05:09:30 10° NE
Cosmos 1151 Rocket 4.3 05:01:35 25° NNE 05:03:34 41° ENE 05:07:43 10° SE
Cosmos 2344 3.4 05:03:34 54° WSW 05:05:19 72° NW 05:13:20 10° NE
Cosmos 1816 Rocket 4.3 05:07:03 30° SSW 05:10:18 70° W 05:16:38 10° N
USA 215 3.2 05:04:28 10° ESE 05:11:02 85° NNE 05:13:03 48° NW
Meteor 1-31 Rocket 4.2 05:10:29 10° NNE 05:14:09 38° E 05:17:48 10° SSE
SJ-12 4.3 05:15:31 10° NNE 05:19:39 62° ESE 05:23:44 10° S
FALCON 9 DEB 4.4 05:21:07 39° ENE 05:21:07 39° ENE 05:23:23 10° ENE
Cosmos 2369 Rocket 2.7 05:15:12 10° S 05:20:40 59° ESE 05:26:11 10° NE
COSMO-SKYMED 1 2.5 05:20:19 10° SSE 05:24:39 82° ENE 05:25:48 49° N
H-2A R/B 2.7 05:23:55 10° NNE 05:27:37 75° E 05:31:22 10° S
Cosmos 1634 Rocket 3.9 05:23:02 10° NNW 05:29:21 79° W 05:35:33 10° S
Cosmos 1867 4.4 05:30:58 34° SW 05:30:58 34° SW 05:35:01 10° S
Cosmos 836 Rocket 4.5 05:27:51 32° NNW 05:30:21 83° ENE 05:35:34 10° SSE
Helios 1B 4.4 05:29:22 10° S 05:33:41 77° WSW 05:34:31 56° NW
Tsikada Rocket 4.0 05:32:02 10° SSW 05:38:07 56° WNW 05:44:19 10° N
CZ-4B R/B 4.4 05:39:21 10° E 05:40:55 13° ENE 05:42:29 10° NE
MOS 1-B Rocket 4.0 05:34:49 10° S 05:41:01 56° WSW 05:44:43 22° NNW
Gblst 52 Del rocket 4.4 05:41:33 37° W 05:44:08 78° NNW 05:51:04 10° ENE
Cosmos 1656 Rocket 4.0 05:38:59 10° SSW 05:44:19 65° ESE 05:49:44 10° NNE
SAR-Lupe-3 4.4 05:41:12 10° NNE 05:44:49 90° ESE 05:48:25 10° SSW
CZ-4C R/B 2.8 05:42:28 10° SSE 05:45:36 73° ENE 05:46:01 60° NNE
Cosmos 1943 Rocket 2.5 05:48:15 35° W 05:49:55 45° NW 05:55:22 10° NNE
CZ-2C R/B 2.6 05:44:41 10° S 05:50:08 62° WSW 05:54:54 13° NNW
Cosmos 1486 Rocket 3.9 05:47:13 10° SSW 05:52:32 86° WNW 05:57:51 10° NNE
SL-8 R/B 3.7 05:54:21 38° W 05:56:06 70° SSW 06:00:50 10° ESE
FALCON 9 DEB 3.5 05:56:51 38° NNE 05:56:51 38° NNE 05:59:11 10° ENE
Cosmos 1515 Rocket 4.2 05:52:18 10° N 05:56:38 55° ENE 06:00:54 10° SSE
Meteor 1-27 Rocket 4.4 05:54:00 10° N 05:59:32 55° ENE 06:05:08 10° SSE
Cosmos 2180 Rocket 4.4 05:53:21 10° N 05:59:35 89° E 06:05:43 10° S
Iridium 2 3.8 05:58:27 10° SSW 06:02:08 49° W 06:05:50 10° N
FALCON 9 DEB 3.6 06:03:16 34° N 06:03:16 34° N 06:05:43 10° ENE
Cosmos 773 Rocket 4.3 05:58:38 11° NNW 06:03:46 66° ENE 06:08:55 10° SSE
FALCON 9 DEB 3.6 06:05:15 33° N 06:05:15 33° N 06:07:46 10° ENE
Cosmos 2297 4.3 06:03:07 27° W 06:05:24 36° NW 06:10:41 10° NNE
SJ 16-02 3.5 06:02:39 10° SSE 06:06:25 29° E 06:10:13 10° NE
CENTAUR R/B 2.9 06:03:21 25° W 06:06:52 47° NW 06:14:01 10° NE
NOAA 11 4.3 06:03:05 10° NNE 06:08:35 78° ESE 06:14:04 10° S
SKYMED 2 4.2 06:08:55 10° SSW 06:12:51 33° W 06:14:24 26° WNW
Envisat 3.2 06:09:55 10° N 06:14:46 45° WNW 06:19:34 10° SW
Cosmos 2278 Rocket 4.0 06:15:42 13° NNW 06:15:45 13° NNW 06:18:18 10° N
SL-27 R/B 2.8 06:14:04 14° NNW 06:17:05 65° ENE 06:20:37 10° SSE
Meteor 2-8 Rocket 4.4 06:11:21 10° NNW 06:17:28 68° W 06:23:31 10° S
NOSS 3-2 (A) 4.1 06:15:15 23° WNW 06:18:19 36° NNW 06:24:34 10° NE
Meteor 2-6 Rocket 4.2 06:13:09 10° NNW 06:18:25 51° W 06:23:36 10° S
Cosmos 1939 Rocket 3.8 06:16:23 10° NNE 06:20:15 49° E 06:24:02 10° S
Landsat 5 4.2 06:17:39 10° SSW 06:21:48 36° W 06:24:58 16° NW
FALCON 9 DEB 3.5 06:21:30 31° NW 06:22:07 36° N 06:24:50 10° ENE
Cosmos 2098 Rocket 3.5 06:19:11 10° SW 06:22:54 38° WNW 06:27:33 10° N
NOSS 3-2 (C) 3.8 06:21:05 16° WSW 06:25:35 45° NW 06:32:04 10° NE
Cosmos 968 Rocket 4.2 06:22:52 10° WSW 06:27:19 31° NW 06:31:52 10° N
Cosmos 921 Rocket 4.3 06:27:25 20° W 06:27:57 20° W 06:31:12 10° SW
Okean 3 Rocket 3.9 06:27:12 10° SSW 06:31:32 43° WNW 06:35:54 10° N
Cosmos 1812 4.0 06:32:03 20° W 06:32:13 20° W 06:35:02 10° SW
H-2A R/B 2.0 06:28:31 10° SSE 06:32:47 82° WSW 06:37:11 10° NNW
ATLAS 3B R/B 4.0 06:28:06 10° S 06:34:09 43° ESE 06:40:30 10° NE
Meteor 1-10 Rocket 4.3 06:29:18 10° NNW 06:34:41 52° W 06:40:01 10° S
SJ-7 4.5 06:31:45 10° N 06:35:55 58° WNW 06:39:59 10° SSW
ATLAS 5 CENTAUR R/B 3.0 06:34:29 10° S 06:38:00 36° ESE 06:41:56 10° NE
ADEOS 3.6 06:33:47 10° N 06:38:53 55° WNW 06:43:58 10° SW
Cosmos 158 Rocket 4.5 06:34:04 10° NNW 06:39:07 61° ENE 06:44:17 10° SE
Cosmos 1151 Rocket 4.2 06:38:29 15° NW 06:40:52 22° W 06:44:14 10° SW
Cosmos 1766 Rocket 4.3 06:40:51 10° SW 06:44:37 28° WNW 06:48:24 10° N
Cosmos 1354 Rocket 4.0 06:39:50 10° SSW 06:45:04 65° WNW 06:50:23 10° NNE
Cosmos 1515 3.9 06:41:22 10° N 06:45:10 72° E 06:48:58 10° SSE
Meteor PRIRODA 3.7 06:42:44 10° N 06:46:15 49° WNW 06:49:45 10° SSW
CZ-2C R/B 2.9 06:42:27 10° N 06:47:15 63° WNW 06:52:12 10° SSW
Meteor 1-31 Rocket 4.0 06:45:20 10° NNW 06:48:18 21° WNW 06:51:16 10° WSW
NOSS 2 (A) 4.3 06:50:03 13° NW 06:52:34 73° NE 06:55:03 10° SE
USA 238 DEB 4.3 06:48:04 10° W 06:54:07 36° NNW 07:00:33 10° NE
USA 238 4.3 06:48:10 10° W 06:54:13 36° NNW 07:00:39 10° NE
USA 215 4.1 06:48:38 10° SSE 06:54:29 35° SW 07:00:22 10° WNW
FALCON 9 DEB 3.7 06:54:09 13° WNW 06:56:57 40° N 07:00:11 10° ENE
Cosmos 2297 Rocket 3.3 06:53:29 10° NNW 06:58:52 42° NE 07:04:12 10° ESE
SMAP 3.0 06:55:48 10° NNE 07:00:29 80° WNW 07:05:08 10° SSW
COSMO-SKYMED 1 4.5 06:59:48 10° WSW 07:01:24 12° W 07:03:00 10° WNW
FengYun 1-2 T 4.2 06:58:13 10° N 07:03:42 73° WNW 07:09:09 10° SSW
Cosmos 2369 Rocket 3.0 07:00:15 10° WSW 07:05:04 29° NW 07:09:56 10° NNE
CZ-4 R/B 4.3 07:03:47 10° NE 07:06:15 16° E 07:08:41 10° SE
CZ-2D R/B 3.4 07:03:01 10° NNE 07:06:50 78° E 07:10:37 10° S
Nadezhda 4 Rocket 4.2 07:05:27 10° SSW 07:11:25 50° WNW 07:17:29 10° N
CZ-4B R/B 3.4 07:08:49 10° N 07:11:57 29° WNW 07:15:04 10° SW
CZ-4B R/B 1.6 07:09:17 10° S 07:12:32 49° W 07:15:45 10° NNW
Cosmos 2228 Rocket 3.1 07:08:10 10° NNW 07:12:39 67° W 07:17:07 10° S
Cosmos 1538 Rocket 4.0 07:07:32 10° NNW 07:12:47 72° WSW 07:17:56 10° SSE
H-2A R/B 2.3 07:08:59 10° NNE 07:13:55 70° ESE 07:18:49 10° S
Cosmos 1607 4.1 07:08:59 10° NW 07:15:18 80° NE 07:21:28 10° SE
Lacrosse 4 Rocket 3.6 07:12:09 10° N 07:15:31 21° NE 07:18:55 10° E
Meteor 2-4 Rocket 4.5 07:13:53 10° N 07:19:47 60° ENE 07:25:35 10° SSE
Cosmos 1408 Rocket 4.5 07:16:22 10° SW 07:19:58 26° WNW 07:23:37 10° NNW
Meteor 1-19 Rocket 4.2 07:14:26 10° NNW 07:20:07 81° W 07:25:36 10° S
